Regional Weather Roundup
Issued by NWS San Diego, CA

Current Version | Previous Version | Text Only | Print | Product List | Glossary On
Versions: 1 2 3 4 5 6 7 8 9 10 11 12 13 14 15 16 17 18 19 20 21 22 23 24 25 26 27
000
ASUS46 KSGX 181811
RWRSGX

SAN DIEGO HOURLY WEATHER ROUNDUP
NATIONAL WEATHER SERVICE SAN DIEGO CA
1000 AM PST MON DEC 18 2017

NOTE: "FAIR" INDICATES FEW OR NO CLOUDS BELOW 12,000 FEET WITH NO
SIGNIFICANT WEATHER AND/OR OBSTRUCTIONS TO VISIBILITY.

CAZ042-043-060-061-PZZ750-775-181900-

GREATER SAN DIEGO AREA

CITY           SKY/WX    TMP DP  RH WIND       PRES   REMARKS
SAN DIEGO AP   SUNNY     63  29  27 CALM      30.19R
NATIONAL CITY    N/A     64  32  30 CALM      30.20R
CHULA VISTA      N/A     65  35  33 CALM      30.10R
IMPERIAL BEACH MOSUNNY   66  21  18 E8        30.18R
BROWN FIELD    SUNNY     65  21  18 CALM      30.18R
MIRAMAR MCAS   MOSUNNY   71  21  15 VRB3      30.18R
MONTGOMERY FLD SUNNY     68  21  16 S3        30.18R
GILLESPIE FLD  SUNNY     54  25  32 CALM      30.18S

$$

NORTH SAN DIEGO COUNTY

CITY           SKY/WX    TMP DP  RH WIND       PRES   REMARKS
CAMP PENDLETON MOSUNNY   63  24  22 S3        30.18S
OCEANSIDE AP   NOT AVBL
OCEANSIDE HBR    N/A     63  29  28 NE2       30.20S
VISTA            N/A     64  30  28 CALM      30.16S
CARLSBAD       SUNNY     65  24  21 SE3       30.17R
DEL MAR          N/A     62  31  31 CALM      30.19S
LA JOLLA SCRIP   N/A     64  28  25 SW1       30.18R
FALLBROOK        N/A     63  27  25 E2        30.20S
ESCONDIDO        N/A     64  31  29 CALM      30.19S
SAN MARCOS       N/A     64  28  25 CALM      30.20S
POWAY            N/A     62  32  32 CALM      30.22R

$$

EAST SAN DIEGO COUNTY

CITY           SKY/WX    TMP DP  RH WIND       PRES   REMARKS
RAMONA         SUNNY     64  22  20 CALM      30.18S
LA MESA          N/A     60  27  28 CALM      30.12R
JAMUL            N/A     65  28  25 CALM      30.20R
DESCANSO N       N/A     56  23  27 W6        30.17R
MT. LAGUNA OBS   N/A     46  17  31 E1        30.17R
CAMPO            N/A     61  16  17 VRB6      30.15R

$$

ORANGE COUNTY AND THE LOS ANGELES BASIN

CITY           SKY/WX    TMP DP  RH WIND       PRES   REMARKS
JOHN WAYNE AP  MOSUNNY   64  44  48 W5        30.18R
LAGUNA BEACH     N/A     62  47  58 CALM      30.13R
LAKE FOREST FR   N/A     63  21  20 CALM      30.06R
HUNTINGTON BCH   N/A     64  45  50 N1        30.19R
LOS ALAMITOS   MOSUNNY   63  36  37 NW3       30.18R
FULLERTON      MOSUNNY   64  41  42 CALM      30.18R
LONG BEACH     SUNNY     64  31  28 CALM      30.19R
L.A. AP        MOSUNNY   66  19  16 N6        30.19R
L.A. DOWNTOWN  SUNNY     65  20  17 CALM      30.18R

$$

THE INLAND EMPIRE

CITY           SKY/WX    TMP DP  RH WIND       PRES   REMARKS
CORONA         SUNNY     66  16  14 E7        30.19R
CHINO          MOSUNNY   63  22  20 E3        30.20R
ONTARIO        MOSUNNY   59  16  18 SW3       30.19R
SAN BERNARDINO SUNNY     61  16  17 CALM      30.20R
RIVERSIDE AP   SUNNY     63  22  20 NE5       30.19R
MORENO VALLEY    N/A     61  31  32 CALM      28.29S
MARCH ARB      SUNNY     56  18  22 CALM      30.19R
HORSETHIEF CYN   N/A     60  15  17 CALM      30.20R
PERRIS           N/A     53  29  39 S3        30.13S
HEMET EAST       N/A     59  20  21 CALM      30.25R
FRENCH VALLEY  FAIR      55  25  30 CALM      30.20S
TEMECULA         N/A     51  30  45 CALM      30.27R

$$

SAN BERNARDINO AND RIVERSIDE COUNTY MOUNTAINS

CITY           SKY/WX    TMP DP  RH WIND       PRES   REMARKS
BIG BEAR AP    SUNNY     41  14  33 CALM      30.24F
ANGELUS OAKS     N/A     41  17  38 CALM      30.24R

$$

SOUTHERN DESERT INCLUDING THE COACHELLA VALLEY

CITY           SKY/WX    TMP DP  RH WIND       PRES   REMARKS
PALM SPRINGS   SUNNY     67  22  18 CALM      30.20S
THOUSAND PALMS   N/A     63  24  22 CALM      30.16R
PALM DESERT      N/A     63  29  27 CALM      26.59S
THERMAL        SUNNY     64  23  21 W5        30.17S
BLYTHE         SUNNY     55  20  25 SE7       30.21R
IMPERIAL AP    SUNNY     63  26  24 W3        30.18R
EL CENTRO NAS  SUNNY     62  23  22 VRB3      30.20R
YUMA AZ        SUNNY     63  16  16 N12       30.18R
MEXICALI       SUNNY     61  18  18 NW6       30.20R

$$

UPPER DESERT

CITY           SKY/WX    TMP DP  RH WIND       PRES   REMARKS
HESPERIA         N/A     48  18  30 SE1       30.47R
APPLE VALLEY     N/A     48  16  28 E2        30.38R
PALMDALE       SUNNY     46   9  22 NW7       30.28R
LANCASTER      SUNNY     43   5  20 CALM      30.29R
EDWARDS AFB    MOSUNNY   40   7  25 CALM      30.27R
DAGGETT        SUNNY     50  10  20 W10       30.26R
29 PALMS N     SUNNY     52   9  17 NW3       30.31S
NEEDLES        SUNNY     59  20  22 N10       30.24R

$$

REGIONAL REPORTS

CITY           SKY/WX    TMP DP  RH WIND       PRES   REMARKS
SANTA BARBARA  SUNNY     65  32  29 W9        30.18R
SANDBERG       SUNNY     52   3  13 NE8       30.27R
LAS VEGAS NV   MOSUNNY   51  15  23 CALM      30.27R
PHOENIX AZ     MOSUNNY   59  41  51 VRB3      30.14R
TIJUANA        SUNNY     64  21  19 CALM      30.21R
ENSENADA NW      N/A     67  32  27 CALM      30.09R

$$

OFFSHORE ISLANDS

CITY           SKY/WX    TMP DP  RH WIND       PRES   REMARKS
CATALINA ARPT  SUNNY     62  27  26 W6        30.20R
SAN CLEMENTE I MOSUNNY   65  45  48 SE14      30.19R
SAN NICOLAS IS MOSUNNY   64  50  60 N9        30.19R

$$

MARINE AND OFFSHORE BUOY REPORTS

STATION/POSITION SKY/WX   TEMP    WIND        PRES    VSBY  SWELL
                          AIR SEA DIR/SP/G                  HT/PER/DIR
                          (F)     (DEG/KT/KT) (MB)    (MI)  (FT/S/D)
TANNER BANKS               61 62              1021.4R
S CLEMENTE BASIN           64 63   90/  2/  4 1021.8R         3/290/12
SAN NICOLAS IS.               61                N/A           3/310/12
SO. S. ROSA ISLA           58 58  330/  8/ 10 1022.0R         5/320/10
W. S. BARBARA CH           59 58   CALM  /  2 1022.2R         3/290/11
M. S. BARBARA CH           60 60  250/  4/  6 1023.1
S. MONICA BASIN               61  100/  8/ 10 1022.0R         3/260/11
S PEDRO CHANNEL               61                N/A           2/270/11
CMP PENDLETON NS              61                N/A           2/220/15
OCEANSIDE OFFSHR              62                N/A           2/250/13
TORREY PINES OTR              63                N/A           2/270/11
SAN DIEGO BAY                 63              1022.4R
POINT LOMA SOUTH              64                N/A           2/290/11

$$





USA.gov is the U.S. government's official web portal to all federal, state and local government web resources and services.